Williamsburg, VA

6:10 PM EDT on October 01, 2016 (GMT -0400)
Williamsburg-jamestown

Weather History for KJGG - September, 2014

Change the Weather History Date:

Wednesday, September 3, 2014

  Actual Average Record
Temperature  
Mean Temperature 86 °F -  
Max Temperature 93 °F 86 °F 98 °F (2015)
Min Temperature 77 °F 65 °F 48 °F (1967)
Cooling Degree Days 20    
Growing Degree Days 36 (Base 50)    
Moisture  
Dew Point 72 °F    
Average Humidity 67    
Maximum Humidity 89    
Minimum Humidity 46    
Precipitation  
Precipitation 0.00 in - - ()
Sea Level Pressure  
Sea Level Pressure 30.03 in    
Wind  
Wind Speed 5 mph (WNW)    
Max Wind Speed 9 mph    
Max Gust Speed 16 mph    
Visibility 10 miles    
Events      
Averages and records for this station are not official NWS values.
T = Trace of Precipitation, MM = Missing Value Source: NWS Daily Summary

Daily Weather History Graph

Daily Weather History Graph

Search for Another Location

Airport or City:

Trip Planner

Search our weather history database for the weather conditions in past years. The results will help you decide how hot, cold, wet, or windy it might be!

Date:

Astronomy

Sep. 03, 2014 Rise Set
Actual Time 6:39 AM EDT 7:32 PM EDT
Civil Twilight 6:12 AM EDT 7:59 PM EDT
Nautical Twilight 5:41 AM EDT 8:30 PM EDT
Astronomical Twilight 5:08 AM EDT 9:02 PM EDT
Moon 3:08 PM EDT (9/3) 12:35 AM EDT (9/3)
Length of Visible Light 13h 46m
Length of Day
12h 53m
Waxing Gibbous, 63% of the Moon is Illuminated
Sep 3
Waxing Gibbous
Sep 8
Full
Sep 15
Last Quarter
Sep 24
New
Oct 1
First Quarter

Hourly Weather History & Observations

Time (EDT) Temp. Heat Index Dew Point Humidity Pressure Visibility Wind Dir Wind Speed Gust Speed Precip Events Conditions
12:35 AM 82.4 °F 87.2 °F 71.6 °F 70% 29.96 in 10.0 mi WSW 9.2 mph - N/A   Clear
12:55 AM 82.4 °F 87.2 °F 71.6 °F 70% 29.97 in 10.0 mi WSW 8.1 mph - N/A   Clear
1:15 AM 82.4 °F 87.2 °F 71.6 °F 70% 29.97 in 10.0 mi West 6.9 mph - N/A   Clear
1:35 AM 82.4 °F 87.2 °F 71.6 °F 70% 29.96 in 10.0 mi West 8.1 mph - N/A   Clear
1:55 AM 82.4 °F 87.2 °F 71.6 °F 70% 29.96 in 10.0 mi WSW 9.2 mph - N/A   Clear
2:15 AM 80.6 °F 84.6 °F 71.6 °F 74% 29.96 in 10.0 mi WSW 8.1 mph - N/A   Clear
2:35 AM 80.6 °F 84.6 °F 71.6 °F 74% 29.96 in 10.0 mi WSW 9.2 mph 16.1 mph N/A   Clear
2:55 AM 80.6 °F 84.6 °F 71.6 °F 74% 29.95 in 10.0 mi WSW 6.9 mph - N/A   Clear
3:15 AM 80.6 °F 84.6 °F 71.6 °F 74% 29.95 in 10.0 mi WSW 6.9 mph - N/A   Clear
3:35 AM 80.6 °F 84.6 °F 71.6 °F 74% 29.95 in 10.0 mi WSW 3.5 mph - N/A   Clear
3:55 AM 80.6 °F 84.6 °F 71.6 °F 74% 29.95 in 10.0 mi WSW 6.9 mph - N/A   Clear
4:15 AM 78.8 °F - 71.6 °F 78% 29.95 in 10.0 mi WSW 4.6 mph - N/A   Clear
4:35 AM 78.8 °F - 71.6 °F 78% 29.96 in 10.0 mi WSW 3.5 mph - N/A   Clear
4:55 AM 78.8 °F - 71.6 °F 78% 29.96 in 10.0 mi WSW 4.6 mph - N/A   Clear
5:15 AM 78.8 °F - 71.6 °F 78% 29.96 in 10.0 mi WSW 6.9 mph - N/A   Clear
5:35 AM 78.8 °F - 71.6 °F 78% 29.96 in 10.0 mi WSW 5.8 mph - N/A   Clear
5:55 AM 78.8 °F - 71.6 °F 78% 29.96 in 10.0 mi WSW 3.5 mph - N/A   Clear
6:15 AM 78.8 °F - 71.6 °F 78% 29.97 in 10.0 mi Calm Calm - N/A   Clear
6:35 AM 78.8 °F - 71.6 °F 78% 29.98 in 10.0 mi West 4.6 mph - N/A   Clear
6:55 AM 78.8 °F - 71.6 °F 78% 29.99 in 10.0 mi West 5.8 mph - N/A   Clear
7:15 AM 78.8 °F - 71.6 °F 78% 30.00 in 10.0 mi WSW 3.5 mph - N/A   Clear
7:35 AM 78.8 °F - 71.6 °F 78% 30.00 in 10.0 mi West 6.9 mph - N/A   Clear
7:55 AM 78.8 °F - 71.6 °F 78% 30.01 in 10.0 mi West 5.8 mph - N/A   Clear
8:15 AM 78.8 °F - 71.6 °F 78% 30.02 in 10.0 mi WNW 4.6 mph - N/A   Clear
8:35 AM 78.8 °F - 71.6 °F 78% 30.03 in 10.0 mi WNW 5.8 mph - N/A   Clear
8:55 AM 78.8 °F - 71.6 °F 78% 30.03 in 10.0 mi NW 8.1 mph - N/A   Clear
9:15 AM 80.6 °F 85.4 °F 73.4 °F 79% 30.04 in 10.0 mi NW 3.5 mph - N/A   Clear
9:35 AM 84.2 °F 90.9 °F 73.4 °F 70% 30.03 in 10.0 mi North 5.8 mph - N/A   Clear
9:55 AM 84.2 °F 90.9 °F 73.4 °F 70% 30.04 in 10.0 mi North 4.6 mph - N/A   Clear
10:15 AM 87.8 °F 95.6 °F 73.4 °F 62% 30.04 in 10.0 mi NE 3.5 mph - N/A   Clear
10:35 AM 86.0 °F 93.4 °F 73.4 °F 66% 30.05 in 10.0 mi North 4.6 mph - N/A   Clear
10:55 AM 89.6 °F 98.2 °F 73.4 °F 59% 30.06 in 10.0 mi NNE 4.6 mph - N/A   Clear
11:15 AM 89.6 °F 98.2 °F 73.4 °F 59% 30.06 in 10.0 mi Calm Calm - N/A   Clear
11:35 AM 91.4 °F 102.5 °F 75.2 °F 59% 30.06 in 10.0 mi Calm Calm - N/A   Clear
11:55 AM 89.6 °F 98.2 °F 73.4 °F 59% 30.06 in 10.0 mi ENE 4.6 mph - N/A   Scattered Clouds
12:15 PM 89.6 °F 98.2 °F 73.4 °F 59% 30.05 in 10.0 mi NNE 4.6 mph - N/A   Scattered Clouds
12:35 PM 93.2 °F 102.4 °F 73.4 °F 52% 30.05 in 10.0 mi ENE 4.6 mph - N/A   Scattered Clouds
12:55 PM 93.2 °F 102.4 °F 73.4 °F 52% 30.06 in 10.0 mi NE 3.5 mph - N/A   Clear
1:15 PM 91.4 °F 98.4 °F 71.6 °F 52% 30.06 in 10.0 mi Calm Calm - N/A   Clear
1:35 PM 89.6 °F 96.2 °F 71.6 °F 55% 30.06 in 10.0 mi ENE 3.5 mph - N/A   Clear
1:55 PM 93.2 °F 98.8 °F 69.8 °F 46% 30.06 in 10.0 mi ENE 3.5 mph - N/A   Clear
2:15 PM 93.2 °F 98.8 °F 69.8 °F 46% 30.06 in 10.0 mi NNE 4.6 mph - N/A   Clear
2:35 PM 93.2 °F 98.8 °F 69.8 °F 46% 30.06 in 10.0 mi NE 3.5 mph - N/A   Clear
2:55 PM 91.4 °F 96.8 °F 69.8 °F 49% 30.05 in 10.0 mi ENE 4.6 mph - N/A   Clear
3:15 PM 93.2 °F 98.8 °F 69.8 °F 46% 30.05 in 10.0 mi Calm Calm - N/A   Clear
3:35 PM 91.4 °F 96.8 °F 69.8 °F 49% 30.05 in 10.0 mi NE 3.5 mph - N/A   Clear
3:55 PM 91.4 °F 96.8 °F 69.8 °F 49% 30.05 in 10.0 mi NE 4.6 mph - N/A   Clear
4:15 PM 93.2 °F 98.8 °F 69.8 °F 46% 30.05 in 10.0 mi Calm Calm - N/A   Clear
4:35 PM 91.4 °F 96.8 °F 69.8 °F 49% 30.04 in 10.0 mi Calm Calm - N/A   Clear
4:55 PM 91.4 °F 98.4 °F 71.6 °F 52% 30.05 in 10.0 mi Calm Calm - N/A   Clear
5:15 PM 91.4 °F 96.8 °F 69.8 °F 49% 30.05 in 10.0 mi Calm Calm - N/A   Clear
5:35 PM 91.4 °F 96.8 °F 69.8 °F 49% 30.05 in 10.0 mi Calm Calm - N/A   Clear
5:55 PM 89.6 °F 94.7 °F 69.8 °F 52% 30.05 in 10.0 mi East 3.5 mph - N/A   Clear
6:15 PM 87.8 °F 93.8 °F 71.6 °F 58% 30.05 in 10.0 mi Calm Calm - N/A   Clear
6:35 PM 86.0 °F 91.8 °F 71.6 °F 62% 30.06 in 10.0 mi ESE 6.9 mph - N/A   Clear
6:55 PM 84.2 °F 89.6 °F 71.6 °F 66% 30.06 in 10.0 mi East 5.8 mph - N/A   Clear
7:15 PM 82.4 °F 87.2 °F 71.6 °F 70% 30.06 in 10.0 mi Calm Calm - N/A   Clear
7:55 PM 80.6 °F 84.6 °F 71.6 °F 74% 30.09 in 10.0 mi ESE 4.6 mph - N/A   Clear
8:15 PM 80.6 °F 84.6 °F 71.6 °F 74% 30.10 in 10.0 mi ESE 3.5 mph - N/A   Clear
8:35 PM 80.6 °F 84.6 °F 71.6 °F 74% 30.11 in 10.0 mi SE 4.6 mph - N/A   Clear
8:55 PM 80.6 °F 84.6 °F 71.6 °F 74% 30.11 in 10.0 mi ESE 6.9 mph - N/A   Clear
9:15 PM 80.6 °F 84.6 °F 71.6 °F 74% 30.11 in 10.0 mi SE 5.8 mph - N/A   Clear
9:35 PM 78.8 °F - 71.6 °F 78% 30.11 in 10.0 mi ESE 6.9 mph - N/A   Clear
9:55 PM 78.8 °F - 71.6 °F 78% 30.12 in 10.0 mi ESE 4.6 mph - N/A   Clear
10:15 PM 78.8 °F - 71.6 °F 78% 30.12 in 10.0 mi Calm Calm - N/A   Clear
10:35 PM 78.8 °F - 73.4 °F 83% 30.12 in 10.0 mi Calm Calm - N/A   Clear
10:55 PM 78.8 °F - 73.4 °F 83% 30.13 in 10.0 mi Calm Calm - N/A   Clear
11:15 PM 78.8 °F - 73.4 °F 83% 30.13 in 10.0 mi Calm Calm - N/A   Clear
11:55 PM 77.0 °F - 73.4 °F 89% 30.13 in 10.0 mi Calm Calm - N/A   Clear